(503508) = 2011 DO23 = 2016 FO1

Discovered at Kitt Peak on 2011-02-26 by Spacewatch.

Orbit

Orbit type: Mars-crosser

Note: WebGL enabled browser required.

epoch2023-02-25.0
epoch JD2460000.5
perihelion date2020-10-07.65980
perihelion JD2459130.15980
argument of perihelion (°)276.54560
ascending node (°)169.48658
inclination (°)22.93417
eccentricity0.1090922
perihelion distance (AU)1.6546276
Tisserand w.r.t. Jupiter3.9
ΔV w.r.t. Earth (km/sec)10.7
semimajor axis (AU)1.8572378
mean anomaly (°)338.91564
mean daily motion (°/day)0.38940590
aphelion distance (AU)2.060
period (years)2.53
P-vector [x]0.05486671
P-vector [y]0.99843395
P-vector [z]0.01092237
Q-vector [x]-0.99595891
Q-vector [y]0.05394520
Q-vector [z]0.07180368
absolute magnitude18.91
phase slope0.15
uncertainty0
referenceMPO 745323
observations used145
oppositions7
arc length (days)4250
first opposition used2011
last opposition used2022
residual rms (arc-secs)0.70
perturbers coarse indicatorM-v
perturbers precise indicator003Ek
first observation date used2011-02-26.0
last observation date used2022-10-16.0
computer nameMPCLINUX
JD of orbit computation2458019.042063
perihelion JD uncertainty (days)2.5031E-04
argument of perihelion uncertainty (°)1.0476E-04
ascending node uncertainty (°)7.2708E-06
inclination uncertainty (°)1.4182E-05
eccentricity uncertainty 3.2164E-08
perihelion distance uncertainty (AU)6.7697E-08
Minimum Orbit Intersection Distances (in AU)
for orbit epoch: 2460000.5, reference: E2023-G86
Mercury1.38702
Venus1.02466
Earth0.77877
Mars0.15883
Jupiter3.10484
Saturn7.53468
Uranus16.6094
Neptune28.0613

Observations

150 total observations over interval: 2011 02 26.32536 – 2022 10 16.359288
These data are available for download (format description).

